GW2505 Weather Reports


time (UTC)temp
C
wind
direction
speed
KPH
gust
KPH
rain 1hr
cm
rain 24hr
cm
rain mn
cm
humidity
%
barometer
mb
20260506081355 23 177 4.8 8.0 0.00 0.00 0.00 93 1006.1
20260506080853 23 189 14.5 17.7 0.00 0.00 0.00 93 1006.2
20260506080349 23 163 9.7 12.9 0.00 0.00 0.00 93 1006.1
20260506073333 23 168 3.2 8.0 0.00 0.00 0.00 93 1006.1
20260506072824 23 183 12.9 16.1 0.00 0.00 0.00 93 1006.4
20260506072322 23 195 4.8 8.0 0.00 0.00 0.00 93 1006.7
20260506071820 23 174 11.3 16.1 0.00 0.00 0.00 93 1006.6
20260506071318 23 195 1.6 12.9 0.00 0.00 0.00 93 1006.5
20260506070814 23 196 8.0 11.3 0.00 0.00 0.00 93 1006.5
20260506070311 23 165 6.4 9.7 0.00 0.00 0.00 93 1006.5
20260506062248 24 170 8.0 11.3 0.00 0.00 0.00 92 1006.7
20260506061744 24 168 12.9 16.1 0.00 0.00 0.00 92 1006.6
20260506061241 24 143 12.9 17.7 0.00 0.00 0.00 92 1006.6
20260506060740 24 175 9.7 16.1 0.00 0.00 0.00 93 1006.8
20260506060237 24 192 9.7 11.3 0.00 0.00 0.00 93 1006.5
20260506051209 24 176 11.3 16.1 0.00 0.00 0.00 92 1006.8
20260506050707 24 198 11.3 14.5 0.00 0.00 0.00 92 1006.9
20260506050204 24 135 0.0 1.6 0.00 0.00 0.00 92 1006.9
20260506044655 24 173 6.4 9.7 0.00 0.00 0.00 91 1007.1
20260506044151 25 170 3.2 4.8 0.00 0.00 0.00 91 1007.1
20260506043649 25 117 4.8 4.8 0.00 0.00 0.00 91 1007.0
20260506043147 25 151 11.3 17.7 0.00 0.00 0.00 91 1006.8
20260506042646 25 187 3.2 4.8 0.00 0.00 0.00 91 1006.9
20260506042143 25 210 6.4 11.3 0.00 0.00 0.00 90 1006.9
20260506041642 25 151 4.8 8.0 0.00 0.00 0.00 90 1006.9
20260506041138 25 161 4.8 8.0 0.00 0.00 0.00 90 1006.6
20260506040635 25 208 4.8 8.0 0.00 0.00 0.00 90 1006.7
20260506040132 25 180 9.7 12.9 0.00 0.00 0.00 90 1006.6
20260506035629 25 163 9.7 11.3 0.00 0.00 0.00 90 1006.6
20260506035126 25 169 8.0 11.3 0.00 0.00 0.00 89 1006.3
20260506034623 25 181 1.6 4.8 0.00 0.00 0.00 89 1006.5
20260506034120 25 179 6.4 12.9 0.00 0.00 0.00 89 1006.5
20260506033617 25 187 3.2 3.2 0.00 0.00 0.00 89 1006.5
20260506033114 25 183 11.3 16.1 0.00 0.00 0.00 89 1006.4
20260506032612 25 147 1.6 3.2 0.00 0.00 0.00 88 1006.2
20260506032108 25 159 0.0 0.0 0.00 0.00 0.00 88 1006.5
20260506031605 25 168 6.4 8.0 0.00 0.00 0.00 88 1006.2
20260506031102 25 140 4.8 4.8 0.00 0.00 0.00 88 1006.1
20260506030601 25 165 0.0 0.0 0.00 0.00 0.00 88 1006.0
20260506030057 25 191 8.0 11.3 0.00 0.00 0.00 88 1006.1
20260506025554 25 150 0.0 0.0 0.00 0.00 0.00 88 1006.0
20260506025050 25 188 9.7 12.9 0.00 0.00 0.00 88 1005.7
20260506024548 25 115 1.6 3.2 0.00 0.00 0.00 87 1005.8
20260506024044 25 168 1.6 8.0 0.00 0.00 0.00 87 1005.7
20260506023540 25 182 6.4 8.0 0.00 0.00 0.00 86 1005.5
20260506023038 26 165 4.8 4.8 0.00 0.00 0.00 86 1005.3
20260506022535 26 157 1.6 3.2 0.00 0.00 0.00 85 1005.2
20260506022032 26 205 3.2 4.8 0.00 0.00 0.00 84 1005.1
20260506021530 26 120 0.0 0.0 0.00 0.00 0.00 84 1004.8
20260506021027 26 141 1.6 3.2 0.00 0.00 0.00 83 1004.7
20260506020525 26 184 1.6 4.8 0.00 0.00 0.00 83 1004.8
20260506020022 26 117 4.8 9.7 0.00 0.00 0.00 82 1004.7
20260506015519 26 130 1.6 4.8 0.00 0.00 0.00 82 1004.8
20260506015016 26 157 1.6 1.6 0.00 0.00 0.00 82 1004.8
20260506014514 26 177 1.6 3.2 0.00 0.00 0.00 82 1004.6
20260506014009 26 172 1.6 4.8 0.00 0.00 0.00 81 1004.5
20260506013507 26 168 0.0 0.0 0.00 0.00 0.00 81 1004.8
20260506013004 27 164 0.0 1.6 0.00 0.00 0.00 81 1004.6
20260506012500 27 172 3.2 9.7 0.00 0.00 0.00 81 1004.5
20260506011957 27 171 3.2 4.8 0.00 0.00 0.00 80 1004.6
20260506011454 27 142 0.0 0.0 0.00 0.00 0.00 79 1004.6
20260506010951 27 149 0.0 0.0 0.00 0.00 0.00 79 1004.6
20260506010450 27 130 0.0 1.6 0.00 0.00 0.00 78 1004.7
20260506005945 27 151 3.2 8.0 0.00 0.00 0.00 78 1004.6
20260506005443 27 152 0.0 0.0 0.00 0.00 0.00 78 1004.6
20260506004938 27 157 0.0 1.6 0.00 0.00 0.00 77 1004.7
20260506004437 27 157 1.6 3.2 0.00 0.00 0.00 77 1004.6
20260506003932 27 169 3.2 4.8 0.00 0.00 0.00 77 1004.7
20260506003429 27 133 0.0 1.6 0.00 0.00 0.00 77 1004.6
20260506002926 27 186 6.4 8.0 0.00 0.00 0.00 77 1004.5
20260506002422 27 133 0.0 0.0 0.00 0.00 0.00 77 1004.6
20260506001917 27 160 4.8 8.0 0.00 0.00 0.00 77 1004.4
20260506001415 27 150 6.4 8.0 0.00 0.00 0.00 77 1004.6
20260506000912 28 133 6.4 8.0 0.00 0.00 0.00 77 1004.4
20260506000409 28 182 1.6 3.2 0.00 0.00 0.00 76 1004.3
20260505235906 28 176 4.8 4.8 0.00 0.00 0.00 76 1004.5
20260505235404 28 161 4.8 9.7 0.00 0.00 0.00 76 1004.4
20260505234900 28 130 1.6 3.2 0.00 0.00 0.00 76 1004.5
20260505234358 28 160 8.0 11.3 0.00 0.00 0.00 76 1004.4
20260505233854 28 177 6.4 8.0 0.00 0.00 0.00 75 1004.2
20260505233353 28 177 8.0 9.7 0.00 0.00 0.00 74 1004.3
20260505232850 28 167 1.6 3.2 0.00 0.00 0.00 74 1004.2
20260505232348 28 171 8.0 9.7 0.00 0.00 0.00 74 1004.3
20260505231844 28 189 1.6 4.8 0.00 0.00 0.00 74 1004.2
20260505231341 28 201 9.7 16.1 0.00 0.00 0.00 74 1004.3
20260505230840 28 170 8.0 9.7 0.00 0.00 0.00 74 1004.4
20260505230337 28 174 11.3 14.5 0.00 0.00 0.00 75 1004.0
20260505225833 28 199 4.8 11.3 0.00 0.00 0.00 74 1004.0
20260505225330 28 190 8.0 9.7 0.00 0.00 0.00 74 1004.1
20260505224825 28 164 8.0 9.7 0.00 0.00 0.00 74 1004.3
20260505224324 28 217 9.7 11.3 0.00 0.00 0.00 73 1004.2
20260505223820 28 153 6.4 9.7 0.00 0.00 0.00 73 1004.2
20260505223318 28 181 16.1 22.5 0.00 0.00 0.00 73 1003.9
20260505222813 28 178 6.4 9.7 0.00 0.00 0.00 73 1004.1
20260505222309 28 187 11.3 16.1 0.00 0.00 0.00 71 1004.2
20260505221807 28 176 8.0 9.7 0.00 0.00 0.00 72 1004.3
20260505221303 28 119 0.0 1.6 0.00 0.00 0.00 72 1004.1
20260505220800 28 199 8.0 9.7 0.00 0.00 0.00 72 1004.2
20260505220257 28 181 16.1 17.7 0.00 0.00 0.00 72 1004.3
20260505215755 28 164 19.3 22.5 0.00 0.00 0.00 72 1004.1
20260505215253 29 199 9.7 12.9 0.00 0.00 0.00 72 1004.5
20260505214750 28 124 3.2 9.7 0.00 0.00 0.00 74 1004.6
20260505214248 28 188 11.3 12.9 0.00 0.00 0.00 73 1004.8
20260505213745 29 172 11.3 16.1 0.00 0.00 0.00 71 1004.7
20260505213242 28 206 11.3 12.9 0.00 0.00 0.00 71 1004.8
20260505212738 28 172 9.7 11.3 0.00 0.00 0.00 72 1004.8
20260505212236 28 180 11.3 12.9 0.00 0.00 0.00 73 1005.0
20260505211732 28 168 8.0 9.7 0.00 0.00 0.00 72 1004.8
20260505211230 28 177 17.7 20.9 0.00 0.00 0.00 71 1005.1
20260505210726 28 187 6.4 9.7 0.00 0.00 0.00 73 1004.8
20260505210223 27 222 16.1 20.9 0.00 0.00 0.00 74 1004.9
20260505205720 28 200 9.7 14.5 0.00 0.00 0.00 74 1004.9
20260505205218 28 179 4.8 4.8 0.00 0.00 0.00 74 1004.9
20260505204714 27 186 8.0 9.7 0.00 0.00 0.00 75 1005.1
20260505204213 27 174 9.7 12.9 0.00 0.00 0.00 77 1005.4
20260505203710 27 194 8.0 22.5 0.00 0.00 0.00 76 1005.4
20260505203206 27 185 9.7 14.5 0.00 0.00 0.00 76 1005.6
20260505202702 27 199 9.7 11.3 0.00 0.00 0.00 76 1005.6
20260505202158 27 168 4.8 8.0 0.00 0.00 0.00 76 1005.6
20260505201655 27 197 14.5 20.9 0.00 0.00 0.00 76 1005.6
20260505201153 27 188 4.8 9.7 0.00 0.00 0.00 77 1005.7
20260505200651 27 204 14.5 16.1 0.00 0.00 0.00 77 1005.8
20260505200147 27 177 11.3 12.9 0.00 0.00 0.00 78 1005.8
20260505195643 27 200 3.2 4.8 0.00 0.00 0.00 77 1005.9
20260505195141 26 189 3.2 3.2 0.00 0.00 0.00 79 1006.2
20260505194638 26 173 6.4 11.3 0.00 0.00 0.00 79 1006.0
20260505194134 26 156 9.7 14.5 0.00 0.00 0.00 78 1006.2
20260505193630 26 210 8.0 9.7 0.00 0.00 0.00 78 1006.3
20260505193128 26 175 6.4 8.0 0.00 0.00 0.00 79 1006.2
20260505192626 26 204 11.3 12.9 0.00 0.00 0.00 79 1006.2
20260505192123 26 170 1.6 4.8 0.00 0.00 0.00 80 1006.3
20260505191622 26 189 11.3 12.9 0.00 0.00 0.00 79 1006.2
20260505191119 26 176 16.1 20.9 0.00 0.00 0.00 79 1006.4
20260505190615 26 200 9.7 12.9 0.00 0.00 0.00 79 1006.3
20260505190110 26 186 11.3 16.1 0.00 0.00 0.00 80 1006.4
20260505185607 26 182 8.0 9.7 0.00 0.00 0.00 80 1006.4
20260505185103 26 183 11.3 12.9 0.00 0.00 0.00 80 1006.5
20260505184600 26 168 4.8 9.7 0.00 0.00 0.00 81 1006.6
20260505184056 26 158 8.0 9.7 0.00 0.00 0.00 81 1006.6
20260505183553 26 213 11.3 17.7 0.00 0.00 0.00 81 1006.8
20260505183051 25 158 0.0 1.6 0.00 0.00 0.00 82 1006.8
20260505182547 25 164 8.0 9.7 0.00 0.00 0.00 82 1006.6
20260505182044 25 148 0.0 1.6 0.00 0.00 0.00 82 1006.9
20260505181540 25 167 3.2 4.8 0.00 0.00 0.00 83 1007.0
20260505181038 25 166 0.0 1.6 0.00 0.00 0.00 83 1006.8
20260505180533 25 175 6.4 8.0 0.00 0.00 0.00 83 1007.0
20260505180032 25 237 8.0 9.7 0.00 0.00 0.00 84 1007.1
20260505175526 25 171 4.8 8.0 0.00 0.00 0.00 84 1007.0
20260505175023 24 146 3.2 8.0 0.00 0.00 0.00 85 1007.1
20260505174520 24 161 1.6 1.6 0.00 0.00 0.00 85 1007.2
20260505174016 24 180 3.2 4.8 0.00 0.00 0.00 86 1007.0
20260505173513 24 193 9.7 11.3 0.00 0.00 0.00 85 1007.3
20260505173010 24 178 11.3 12.9 0.00 0.00 0.00 85 1007.1
20260505172508 24 184 8.0 9.7 0.00 0.00 0.00 85 1007.2
20260505172003 23 170 8.0 9.7 0.00 0.00 0.00 86 1007.2
20260505171459 23 156 1.6 3.2 0.00 0.00 0.00 87 1007.2
20260505170956 23 183 3.2 8.0 0.00 0.00 0.00 86 1007.3
20260505170453 23 194 14.5 22.5 0.00 0.00 0.00 86 1007.2
20260505165948 23 168 3.2 4.8 0.00 0.00 0.00 86 1007.2
20260505165444 23 211 8.0 9.7 0.00 0.00 0.00 87 1007.3
20260505164940 23 171 4.8 8.0 0.00 0.00 0.00 88 1007.5
20260505164437 23 179 14.5 16.1 0.00 0.00 0.00 88 1007.2
20260505163934 23 178 3.2 4.8 0.00 0.00 0.00 89 1007.3
20260505163433 23 192 9.7 11.3 0.00 0.00 0.00 89 1007.2
20260505162932 22 178 12.9 20.9 0.00 0.00 0.00 89 1007.2
20260505162427 23 193 9.7 12.9 0.00 0.00 0.00 89 1007.0
20260505161924 22 162 8.0 9.7 0.00 0.00 0.00 90 1007.2
20260505161421 22 164 8.0 9.7 0.00 0.00 0.00 90 1007.4
20260505160918 22 203 11.3 16.1 0.00 0.00 0.00 91 1007.3
20260505160416 22 178 8.0 9.7 0.00 0.00 0.00 91 1007.3
20260505153355 22 172 8.0 11.3 0.00 0.00 0.00 92 1007.3
20260505152852 22 200 12.9 14.5 0.00 0.00 0.00 92 1007.3
20260505152349 22 153 0.0 3.2 0.00 0.00 0.00 92 1007.3
20260505151843 22 205 8.0 9.7 0.00 0.00 0.00 92 1007.3
20260505151340 22 152 4.8 9.7 0.00 0.00 0.00 92 1007.0
20260505150837 22 194 8.0 11.3 0.00 0.00 0.00 92 1007.0
20260505150334 21 177 12.9 14.5 0.00 0.00 0.00 93 1007.0
20260505140258 21 176 8.0 11.3 0.00 0.00 0.00 93 1006.6
20260505130217 21 164 11.3 11.3 0.00 0.00 0.00 94 1006.2
20260505124707 21 206 8.0 11.3 0.00 0.00 0.00 94 1005.8
20260505124204 21 168 12.9 17.7 0.00 0.00 0.00 94 1005.8
20260505123659 21 187 4.8 9.7 0.00 0.00 0.00 94 1005.9
20260505123157 21 212 14.5 17.7 0.00 0.00 0.00 94 1005.8
20260505122653 21 194 6.4 9.7 0.00 0.00 0.00 93 1006.0
20260505122150 21 174 6.4 8.0 0.00 0.00 0.00 93 1005.8
20260505121647 21 186 8.0 11.3 0.00 0.00 0.00 93 1005.6
20260505121143 21 155 11.3 16.1 0.00 0.00 0.00 93 1005.7
20260505120639 21 168 9.7 14.5 0.00 0.00 0.00 93 1005.5
20260505120135 21 189 11.3 12.9 0.00 0.00 0.00 92 1005.4
20260505115630 21 201 9.7 11.3 0.00 0.00 0.00 92 1005.4
20260505115128 21 203 11.3 14.5 0.00 0.00 0.00 92 1005.3
20260505114624 21 154 17.7 22.5 0.00 0.00 0.00 92 1005.5
20260505114121 21 179 9.7 17.7 0.00 0.00 0.00 92 1005.3
20260505113617 21 172 16.1 22.5 0.00 0.00 0.00 92 1005.5
20260505113114 21 200 12.9 16.1 0.00 0.00 0.00 91 1005.5
20260505112610 21 174 14.5 16.1 0.00 0.00 0.00 91 1005.6
20260505112108 21 210 14.5 20.9 0.00 0.00 0.00 91 1005.4
20260505111602 21 139 4.8 4.8 0.00 0.00 0.00 91 1005.3
20260505111058 21 220 14.5 20.9 0.00 0.00 0.00 91 1005.7
20260505110555 21 169 4.8 4.8 0.00 0.00 0.00 92 1005.8
20260505102027 21 197 16.1 24.1 0.00 0.00 0.00 91 1005.7
20260505101526 21 155 3.2 8.0 0.00 0.00 0.00 91 1005.7
20260505101022 21 183 3.2 8.0 0.00 0.00 0.00 91 1005.9
20260505100519 21 210 16.1 20.9 0.00 0.00 0.00 91 1005.6
20260505100016 21 174 16.1 20.9 0.00 0.00 0.00 90 1005.9
20260505095512 21 166 11.3 16.1 0.00 0.00 0.00 90 1005.7
20260505095008 21 187 6.4 11.3 0.00 0.00 0.00 90 1005.5
20260505094505 21 192 9.7 14.5 0.00 0.00 0.00 90 1005.7
20260505094001 21 195 4.8 8.0 0.00 0.00 0.00 90 1005.8
20260505093457 21 175 12.9 16.1 0.00 0.00 0.00 90 1005.8
20260505092955 21 173 1.6 3.2 0.00 0.00 0.00 89 1005.8
20260505092452 21 196 12.9 16.1 0.00 0.00 0.00 90 1005.8
20260505091950 21 178 4.8 4.8 0.00 0.00 0.00 89 1005.8
20260505091447 21 201 11.3 12.9 0.00 0.00 0.00 89 1005.6
20260505090945 21 156 6.4 8.0 0.00 0.00 0.00 89 1005.8
20260505090443 21 145 8.0 9.7 0.00 0.00 0.00 89 1006.0
20260505085940 21 174 8.0 12.9 0.00 0.00 0.00 89 1005.9
20260505085438 21 198 17.7 17.7 0.00 0.00 0.00 89 1005.9
20260505084936 21 200 11.3 12.9 0.00 0.00 0.00 89 1005.8
20260505084434 21 190 12.9 16.1 0.00 0.00 0.00 89 1006.0
20260505083932 21 197 11.3 12.9 0.00 0.00 0.00 89 1005.8
20260505083429 21 174 4.8 9.7 0.00 0.00 0.00 90 1006.1
20260505082925 21 153 4.8 9.7 0.00 0.00 0.00 90 1006.2
20260505082421 21 187 22.5 25.7 0.00 0.00 0.00 90 1006.3
20260505081918 21 198 6.4 11.3 0.00 0.00 0.00 90 1006.1